Regional Weather Roundup
Issued by NWS

Home | Current Version | Previous Version | Graphics & Text | Print | Product List | Glossary On
Versions: 1 2 3 4 5 6 7 8 9 10 11 12 13 14 15 16 17 18 19 20 21 22 23 24 25 26 27 28 29 30 31 32 33 34 35 36 37 38 39 40 41 42 43 44 45 46 47 48 49 50
000
ASUS43 KIND 260259
RWRIN

WEATHER ROUNDUP FOR INDIANA
NATIONAL WEATHER SERVICE INDIANAPOLIS IN
1100 PM EDT SAT APR 25 2015

NOTE: "FAIR" INDICATES FEW OR NO CLOUDS BELOW 12,000 FEET WITH NO
SIGNIFICANT WEATHER AND/OR OBSTRUCTIONS TO VISIBILITY.

* - STATION DOES NOT REPORT WEATHER SUCH AS PRECIPITATION OR FOG.

+ - STATION NOT QUALITY CONTROLLED BY THE NATIONAL WEATHER SERVICE.
    USE DATA WITH CAUTION...ESPECIALLY DEWPOINT AND RELATIVE
    HUMIDITY OBSERVATIONS.

INZ001>003-010>013-019-020-260400-
NORTHWEST INDIANA

CITY           SKY/WX    TMP DP  RH WIND       PRES   REMARKS
GARY /AIRPORT/ CLOUDY    43  34  70 N15       29.84R
KNOX *+        CLOUDY    43  30  61 NE5       29.80S
MONTICELLO +   CLOUDY    43  41  93 NE12G17   29.77R

$$

LMZ046-743>745-260400-
SOUTHERN LAKE MICHIGAN

STATION/POSITION TIME  TEMP    WIND        PRES    WAVE
                       AIR SEA DIR/SP/G            HT
                 (UTC) (F)     (DEG/KT/KT) (MB)    (FT)
BURNS HARBOR     0200   41      20/ 13/ 16 1010.5R
MICHIGAN CITY    0200   40     360/ 14/ 16   N/A
5NW MICH CITY    0200   40 44   20/ 12/ 14   N/A     2

$$

INZ004-005-014>016-021>024-260400-
NORTH CENTRAL INDIANA

CITY           SKY/WX    TMP DP  RH WIND       PRES   REMARKS
GOSHEN         CLOUDY    42  34  73 N5        29.80R
SOUTH BEND     CLOUDY    44  38  79 NW5       29.82S
WARSAW +       CLOUDY    41  36  81 N5        29.79S

$$

INZ006>009-017-018-025>027-260400-
NORTHEAST INDIANA

CITY           SKY/WX    TMP DP  RH WIND       PRES   REMARKS
ANGOLA *+      CLOUDY    41  34  75 CALM      29.79S
FORT WAYNE     CLOUDY    41  34  76 NE6       29.79R

$$

INZ028-029-035-036-043>045-051>053-260400-
WEST CENTRAL INDIANA

CITY           SKY/WX    TMP DP  RH WIND       PRES   REMARKS
CRAWFORDSVL +  CLOUDY    43  37  79 NE18G25   29.73R
GREENCASTLE +  CLOUDY    45  37  76 NE15G21   29.71R
LAFAYETTE      CLOUDY    43  40  89 NE15G28   29.75R
TERRE HAUTE    CLOUDY    47  42  83 NE17G25   29.70R

$$

INZ030>032-037>040-046>048-054>057-064-065-260400-
CENTRAL INDIANA

CITY           SKY/WX    TMP DP  RH WIND       PRES   REMARKS
FRANKFORT +    CLOUDY    44  41  88 NE15      29.76R
GREENWOOD *+   CLOUDY    45  37  76 NE12G18   29.70R
INDIANAPOLIS   CLOUDY    46  38  73 NE18G29   29.68R
-EAGLE CREEK   CLOUDY    46  39  76 NE14G22   29.71R
KOKOMO *+      MOCLDY    43  37  81 NE16G23   29.77R
MT COMFORT *+  CLOUDY    45  41  87 NE13      29.71R
SHELBYVILLE    CLOUDY    47  40  76 NE17      29.68R

$$

INZ033-034-041-042-049-050-058-059-260400-
EAST CENTRAL INDIANA

CITY           SKY/WX    TMP DP  RH WIND       PRES   REMARKS
MUNCIE         CLOUDY    42  38  85 NE13      29.74R

$$

INZ060-061-067>069-081>083-085>088-260400-
SOUTHWEST INDIANA

CITY           SKY/WX    TMP DP  RH WIND       PRES   REMARKS
EVANSVILLE     CLOUDY    55  52  89 NE8       29.61R
HUNTINGBURG *+ CLOUDY    52  48  87 NE7       29.62R

$$

INZ062-063-066-070>080-084-089>092-260400-
SOUTH CENTRAL AND SOUTHEAST INDIANA

CITY           SKY/WX    TMP DP  RH WIND       PRES   REMARKS
BLOOMINGTON    CLOUDY    46  43  89 NE13G23   29.66R
MADISON *+     CLOUDY    45  43  93 NE9       29.65R
SEYMOUR +      CLOUDY    46  46 100 NE12      29.65R

$$




USA.gov is the U.S. government's official web portal to all federal, state and local government web resources and services.